Location: La Brionne
(46.1728°N, 1.7849°E)
Time: 08:53:15
(UTC+00:00)

Cosmos 2016 Rocket - Pass Details

Date: 16 June 2021
Orbit: 947 x 1000 km, 83.0° (Epoch: 02 August)

Event Time Altitude Azimuth Distance (km) Brightness Sun altitude
Rises 22:03:17 0° 349° (N) 3,630 8.5 -16.1°
Reaches altitude 10° 22:05:47 10° 347° (NNW) 2,680 7.6 -16.3°
Maximum altitude 22:11:50 68° 266° (W) 1,020 4.1 -16.7°
Enters shadow 22:16:01 21° 188° (S) 1,993 5.1 -17.0°
